Date String (YYYY-MM-DD hh:mm:ss) UTC,Instrument flags,absolute air pressure of the measurement (hPa),sample flow rate (lpm),inlet stack bypass flow (lpm),air temperature of the measurement (°C),ambient temperature measured by the external sensor (°C),aerosol sample conditioner tube jacket temperature (°C),OPC LED temperature (°C),internal box temperature (°C),relative humidity of the measurement (%),span deviation,mass concentration of particles derived from Lorenz-Mie calculation of OPC scattering (μg/m³),mass concentration of particles derived from Lorenz-Mie calculation of OPC scattering (μg/m³),mass concentration of particles derived from Lorenz-Mie calculation of OPC scattering (μg/m³)
DateTimeUTC,F1_M11,P_M11,Q1_M11,Q2_M11,T1_M11,T2_M11,T3_M11,T4_M11,T5_M11,U1_M11,ZSPAN_M11,X2_M11,X0_M11,X1_M11
2023-11-08 15:00:00,SystemResetWarning,0829.7,5.00,000.00,026.4,025.4,000.0,034.8,027.9,15.3,0000.0,0003.45,0007.80,0002.73
2023-11-08 15:01:00,SystemResetWarning,0829.6,5.00,000.00,026.4,025.4,000.0,034.8,027.9,15.1,0000.0,0003.50,0008.01,0002.73
2023-11-08 15:02:00,SystemResetWarning,0829.6,5.00,000.00,026.4,025.4,000.0,034.8,027.8,15.2,0000.0,0003.51,0008.07,0002.73
2023-11-08 15:03:00,SystemResetWarning,0829.6,5.00,000.00,026.4,025.4,000.0,034.8,027.8,15.0,0000.0,0003.49,0008.09,0002.72
2023-11-08 15:04:00,SystemResetWarning,0829.6,5.00,000.00,026.4,025.4,000.0,034.8,027.9,15.2,0000.0,0003.50,0007.77,0002.72
2023-11-08 15:05:00,SystemResetWarning,0829.6,5.00,000.00,026.4,025.4,000.0,034.8,027.9,15.1,0000.0,0003.48,0007.73,0002.70
2023-11-08 15:06:00,SystemResetWarning,0829.7,5.01,000.00,026.4,025.4,000.0,034.8,027.8,15.2,0000.0,0003.45,0007.99,0002.70
2023-11-08 15:07:00,SystemResetWarning,0829.7,5.00,000.00,026.4,025.5,000.0,034.8,027.8,15.1,0000.0,0003.43,0008.23,0002.70
2023-11-08 15:08:00,SystemResetWarning,0829.6,5.00,000.00,026.4,025.5,000.0,034.8,027.9,15.3,0000.0,0003.39,0008.08,0002.69
2023-11-08 15:09:00,SystemResetWarning,0829.7,5.00,000.00,026.4,025.5,000.0,034.8,027.9,15.5,0000.0,0003.35,0007.92,0002.68
2023-11-08 15:10:00,SystemResetWarning,0829.6,5.00,000.00,026.4,025.5,000.0,034.8,027.9,15.4,0000.0,0003.35,0007.82,0002.69
2023-11-08 15:11:00,SystemResetWarning,0829.7,5.01,000.00,026.4,025.5,000.0,034.8,027.9,15.3,0000.0,0003.37,0007.64,0002.69
2023-11-08 15:12:00,SystemResetWarning,0829.7,5.00,000.00,026.4,025.5,000.0,034.8,027.9,15.3,0000.0,0003.33,0007.75,0002.69
2023-11-08 15:13:00,SystemResetWarning,0829.7,4.99,000.00,026.4,025.5,000.0,034.8,027.9,15.5,0000.0,0003.32,0008.55,0002.69
2023-11-08 15:14:00,SystemResetWarning,0829.7,5.00,000.00,026.4,025.5,000.0,034.8,027.9,15.5,0000.0,0003.33,0008.08,0002.68
2023-11-08 15:15:00,SystemResetWarning,0829.7,5.00,000.00,026.4,025.5,000.0,034.8,027.9,15.3,0000.0,0003.33,0007.92,0002.69
2023-11-08 15:16:00,SystemResetWarning,0829.6,5.00,000.00,026.4,025.5,000.0,034.8,027.9,15.1,0000.0,0003.35,0009.07,0002.71
2023-11-08 15:17:00,SystemResetWarning,0829.7,5.00,000.00,026.4,025.5,000.0,034.8,027.9,15.3,0000.0,0003.36,0009.55,0002.73
2023-11-08 15:18:00,SystemResetWarning,0829.7,4.99,000.00,026.4,025.5,000.0,034.8,027.9,15.3,0000.0,0003.36,0009.25,0002.75
2023-11-08 15:19:00,SystemResetWarning,0829.7,4.99,000.00,026.4,025.5,000.0,034.8,027.9,15.1,0000.0,0003.38,0009.78,0002.77
2023-11-08 15:20:00,SystemResetWarning,0829.7,5.00,000.00,026.4,025.5,000.0,034.8,027.9,15.3,0000.0,0003.40,0010.16,0002.80
2023-11-08 15:21:00,SystemResetWarning,0829.7,5.00,000.00,026.4,025.5,000.0,034.8,027.9,15.2,0000.0,0003.39,0010.15,0002.80
2023-11-08 15:22:00,SystemResetWarning,0829.7,5.00,000.00,026.4,025.5,000.0,034.8,027.9,15.4,0000.0,0003.36,0010.06,0002.81
2023-11-08 15:23:00,SystemResetWarning,0829.7,5.00,000.00,026.4,025.5,000.0,034.8,027.9,15.5,0000.0,0003.34,0009.99,0002.82
2023-11-08 15:24:00,SystemResetWarning,0829.7,5.00,000.00,026.4,025.5,000.0,034.8,027.9,15.2,0000.0,0003.35,0009.11,0002.83
2023-11-08 15:25:00,SystemResetWarning,0829.8,4.99,000.00,026.4,025.5,000.0,034.8,027.8,15.4,0000.0,0003.36,0009.41,0002.85
2023-11-08 15:26:00,SystemResetWarning,0829.8,5.01,000.00,026.4,025.5,000.0,034.8,027.9,15.3,0000.0,0003.36,0009.96,0002.87
2023-11-08 15:27:00,SystemResetWarning,0829.8,5.00,000.00,026.5,025.5,000.0,034.8,027.9,15.5,0000.0,0003.38,0009.47,0002.89
2023-11-08 15:28:00,SystemResetWarning,0829.8,5.01,000.00,026.5,025.5,000.0,034.8,027.9,15.4,0000.0,0003.37,0008.64,0002.90
2023-11-08 15:29:00,SystemResetWarning,0829.8,5.00,000.00,026.5,025.5,000.0,034.8,027.9,15.2,0000.0,0003.40,0008.94,0002.93
2023-11-08 15:30:00,SystemResetWarning,0829.8,5.00,000.00,026.5,025.5,000.0,034.8,027.9,15.2,0000.0,0003.40,0009.36,0002.95
2023-11-08 15:31:00,SystemResetWarning,0829.8,5.00,000.00,026.5,025.5,000.0,034.8,027.9,15.2,0000.0,0003.43,0009.09,0002.98
2023-11-08 15:32:00,SystemResetWarning,0829.9,5.00,000.00,026.5,025.5,000.0,034.8,027.9,15.3,0000.0,0003.45,0009.15,0003.02
2023-11-08 15:33:00,SystemResetWarning,0829.9,5.00,000.00,026.5,025.5,000.0,034.8,027.9,15.1,0000.0,0003.51,0009.30,0003.08
2023-11-08 15:34:00,SystemResetWarning,0829.9,5.01,000.00,026.5,025.6,000.0,034.8,027.9,15.0,0000.0,0003.58,0009.50,0003.11
2023-11-08 15:35:00,SystemResetWarning,0830.0,5.00,000.00,026.5,025.5,000.0,034.8,028.0,15.0,0000.0,0003.62,0009.45,0003.14
2023-11-08 15:36:00,SystemResetWarning,0830.0,5.00,000.00,026.5,025.6,000.0,034.8,028.0,15.1,0000.0,0003.61,0009.09,0003.14
2023-11-08 15:37:00,SystemResetWarning,0830.0,4.99,000.00,026.5,025.6,000.0,034.8,028.0,15.0,0000.0,0003.62,0009.06,0003.14
2023-11-08 15:38:00,SystemResetWarning,0830.0,5.00,000.00,026.5,025.6,000.0,034.8,028.0,15.0,0000.0,0003.62,0008.86,0003.13
2023-11-08 15:39:00,SystemResetWarning,0830.0,5.01,000.00,026.5,025.6,000.0,034.9,028.0,15.1,0000.0,0003.61,0009.15,0003.12
2023-11-08 15:40:00,SystemResetWarning,0830.0,5.01,000.00,026.5,025.6,000.0,034.9,028.0,15.3,0000.0,0003.60,0008.91,0003.09
2023-11-08 15:41:00,SystemResetWarning,0830.0,5.01,000.00,026.5,025.6,000.0,034.9,028.0,16.3,0000.0,0003.57,0008.17,0003.05
2023-11-08 15:42:00,SystemResetWarning,0830.0,4.99,000.00,026.5,025.6,000.0,034.9,028.0,16.2,0000.0,0003.55,0008.14,0003.02
2023-11-08 15:43:00,SystemResetWarning,0830.0,4.99,000.00,026.5,025.6,000.0,034.9,028.0,16.2,0000.0,0003.56,0008.55,0003.02
2023-11-08 15:44:00,SystemResetWarning,0830.1,5.00,000.00,026.5,025.6,000.0,034.9,028.0,16.2,0000.0,0003.57,0008.87,0003.03
2023-11-08 15:45:00,SystemResetWarning,0830.1,4.99,000.00,026.5,025.7,000.0,034.9,028.0,15.9,0000.0,0003.58,0009.02,0003.04
2023-11-08 15:46:00,SystemResetWarning,0830.1,5.01,000.00,026.6,025.7,000.0,034.9,028.0,15.7,0000.0,0003.59,0009.43,0003.07
2023-11-08 15:47:00,SystemResetWarning,0830.0,5.00,000.00,026.6,025.7,000.0,034.9,028.0,15.5,0000.0,0003.62,0009.61,0003.10
2023-11-08 15:48:00,SystemResetWarning,0830.1,5.00,000.00,026.6,025.7,000.0,034.9,028.1,15.6,0000.0,0003.64,0009.59,0003.13
2023-11-08 15:49:00,SystemResetWarning,0830.0,5.01,000.00,026.6,025.7,000.0,034.9,028.1,15.8,0000.0,0003.66,0009.90,0003.16
2023-11-08 15:50:00,SystemResetWarning,0830.1,5.01,000.00,026.6,025.7,000.0,034.9,028.1,15.8,0000.0,0003.72,0010.66,0003.19
2023-11-08 15:51:00,SystemResetWarning,0830.1,5.00,000.00,026.6,025.7,000.0,034.9,028.0,15.8,0000.0,0003.78,0010.56,0003.22
2023-11-08 15:52:00,SystemResetWarning,0830.1,5.00,000.00,026.6,025.7,000.0,034.9,028.1,15.8,0000.0,0003.85,0010.63,0003.27
2023-11-08 15:53:00,SystemResetWarning,0830.1,4.99,000.00,026.6,025.7,000.0,034.9,028.0,15.7,0000.0,0003.89,0011.19,0003.30
2023-11-08 15:54:00,SystemResetWarning,0830.1,4.99,000.00,026.6,025.7,000.0,034.9,028.0,15.8,0000.0,0003.91,0010.83,0003.32
2023-11-08 15:55:00,SystemResetWarning,0830.1,5.00,000.00,026.6,025.7,000.0,034.9,028.1,15.9,0000.0,0003.89,0010.55,0003.31
2023-11-08 15:56:00,SystemResetWarning,0830.1,5.01,000.00,026.6,025.8,000.0,034.9,028.1,15.8,0000.0,0003.87,0010.45,0003.30
2023-11-08 15:57:00,SystemResetWarning,0830.1,5.01,000.00,026.6,025.8,000.0,035.0,028.1,15.9,0000.0,0003.85,0010.27,0003.29
2023-11-08 15:58:00,SystemResetWarning,0830.1,5.01,000.00,026.6,025.7,000.0,035.0,028.1,15.7,0000.0,0003.87,0010.68,0003.29
2023-11-08 15:59:00,SystemResetWarning,0830.1,4.99,000.00,026.6,025.7,000.0,035.0,028.1,15.6,0000.0,0003.89,0010.20,0003.30
